www.pogodaiklimat.ru

Погода и климат >> Архив погоды >> Южная Африка >> Порт Ноллоз


ПОГОДА в Порт Ноллоз

  • Прогноз погоды в Порт Ноллоз
  • Монитор погоды в Порт Ноллоз

АРХИВ ПОГОДЫ в Порт Ноллоз

Время (UTC), дата Ветер
(напр.,м/с)
 
Видим.   Явления Облачность Т
(С)
Тd
(С)
f
(%)
Тe
(С)
Тes
(С)
Комфортность P
(гПа)
Po
(гПа)
Тmin
(С)
Tmax
(С)
R
(мм)
R24
(мм)
S
(см)
21 15.08 ЮВ 2 н/о н/о +11.8 +9.5 86 +11 +11 1020.4 1019.5 +11.8 +30.6
00 16.08 ЮВ 4 н/о н/о +11.9 +10.4 91 +10 +10 1020.6 1019.7 +11.6 +30.6
03 16.08 ЮВ 5 н/о н/о +12.1 +11.0 93 +10 +10 1020.0 1019.1 +11.6 +30.6
06 16.08 В 1 н/о н/о +8.8 +8.0 95 +8 +8 1020.9 1020.0 +8.1
09 16.08 ЮВ 5 н/о н/о +15.4 +11.2 76 +14 +14 1021.9 1021.0 +8.1 +15.4
12 16.08 ЮВ 7 н/о н/о +16.5 +11.2 71 +15 +15 1019.8 1018.9 +8.1 +16.7
15 16.08 ЮВ 7 н/о н/о +15.2 +10.4 73 +13 +13 1018.6 1017.7 +15.2 +17.5
18 16.08 ЮВ 5 н/о н/о +12.4 +10.4 88 +10 +10 1019.0 1018.1 +12.4 +17.5
21 16.08 ЮВ 3 н/о н/о +11.7 +10.1 90 +10 +10 1019.1 1018.2 +11.7 +17.5
00 17.08 В 2 н/о н/о +10.2 +8.8 91 +9 +9 1018.6 1017.7 +10.0 +17.5
03 17.08 СЗ 1 н/о н/о +9.1 +8.0 93 +8 +8 1017.5 1016.6 +8.9 +17.5
06 17.08 СВ 1 н/о н/о +8.8 +7.7 93 +8 +8 1017.5 1016.6 +7.5
09 17.08 Ю 1 н/о н/о +14.3 +10.3 77 +15 +15 1017.5 1016.6 +7.5 +14.5
12 17.08 Ю 2 н/о н/о +18.7 +11.6 63 +20 +20 1015.4 1014.5 +7.5 +18.7
15 17.08 ЮВ 3 н/о н/о +19.9 +11.7 59 +22 +22 комфорт 1014.4 1013.5 +17.7 +21.0
18 17.08 штиль 0 н/о н/о +13.4 +9.3 76 +13 +13 1014.7 1013.8 +13.4 +21.0
21 17.08 С 2 н/о н/о +13.6 +9.2 75 +13 +13 1015.6 1014.7 +12.2 +21.0
00 18.08 СВ 2 н/о н/о +13.1 +10.1 82 +13 +13 1016.1 1015.2 +12.2 +21.0
03 18.08 СВ 1 н/о н/о +10.7 +8.4 86 +10 +10 1016.2 1015.3 +10.7 +21.0
06 18.08 штиль 0 н/о н/о +10.2 +8.3 88 +9 +9 1017.5 1016.6 +9.8
09 18.08 З 2 н/о н/о +13.0 +10.5 85 +12 +12 1019.8 1018.9 +9.8 +14.6
12 18.08 Ю 2 н/о н/о +15.9 +13.0 83 +16 +16 1019.2 1018.3 +9.8 +16.4
15 18.08 Ю 2 н/о н/о +15.1 +12.4 84 +15 +15 1020.3 1019.4 +15.0 +17.7
18 18.08 ЮВ 2 н/о н/о +13.0 +11.2 89 +12 +12 1022.5 1021.6 +12.9 +17.7
21 18.08 ЮВ 3 н/о н/о +12.0 +10.4 90 +11 +11 1023.3 1022.4 +12.0 +17.7
00 19.08 ЮВ 2 н/о н/о +10.5 +9.2 92 +9 +9 1024.0 1023.1 +10.5 +17.7
03 19.08 ЮВ 5 н/о н/о +11.3 +10.5 95 +9 +9 1025.1 1024.2 +9.4 +17.7
06 19.08 ЮВ 2 н/о н/о +9.1 +8.1 93 +7 +7 1026.6 1025.7 +8.6
09 19.08 Ю 4 н/о н/о +15.1 +10.9 76 +14 +14 1026.9 1026.0 +8.6 +15.1
12 19.08 ЮВ 8 н/о н/о +16.3 +10.8 70 +15 +15 1025.5 1024.6 +8.6 +17.4
15 19.08 ЮВ 8 н/о н/о +15.1 +9.3 68 +13 +13 1024.6 1023.7 +15.1 +17.4
18 19.08 ЮВ 6 н/о н/о +12.5 +9.1 80 +10 +10 1026.0 1025.1 +12.5 +17.4
21 19.08 ЮВ 3 н/о н/о +11.1 +8.8 86 +9 +9 1026.2 1025.3 +11.0 +17.4
00 20.08 ЮВ 3 н/о н/о +8.1 +6.2 88 +6 +6 1025.8 1024.9 +7.8 +17.4
03 20.08 В 3 н/о н/о +8.0 +4.9 81 +5 +5 1024.7 1023.8 +7.4 +17.4
06 20.08 В 4 н/о н/о +8.8 +4.0 72 +6 +6 1025.3 1024.4 +7.3
09 20.08 ЮВ 4 н/о н/о +18.4 +8.4 52 +19 +19 1024.9 1024.0 +7.3 +18.7
12 20.08 ЮВ 5 н/о н/о +19.7 +8.5 48 +20 +20 1022.9 1022.0 +7.3 +31.4
15 20.08 ЮВ 7 н/о н/о +18.7 +7.2 47 +18 +18 1021.6 1020.7 +18.5 +31.4
18 20.08 ЮВ 4 н/о н/о +13.2 +8.5 73 +12 +12 1021.8 1020.9 +13.2 +31.4
21 20.08 ЮВ 3 н/о н/о +11.1 +8.1 82 +9 +9 1022.0 1021.1 +11.1 +31.4
00 21.08 ЮВ 2 н/о н/о +10.7 +5.8 72 +10 +10 1021.1 1020.2 +10.4 +31.4
03 21.08 В 2 н/о н/о +20.6 -7.6 14 +21 +21 комфорт 1019.4 1018.5 +10.4 +31.4
06 21.08 В 6 н/о н/о +19.7 -9.3 13 +19 +19 1019.8 1018.9 +10.4
09 21.08 С 4 н/о н/о +33.4 -6.6 7 +29 +29 жарко 1020.1 1019.2 +10.4 +33.4
12 21.08 Ю 1 н/о н/о +29.9 +0.8 15 +27 +27 жарко 1018.7 1017.8 +10.4 +34.1
15 21.08 Ю 3 н/о н/о +26.3 +3.8 23 +25 +25 комфорт 1018.0 1017.1 +26.3 +34.1
18 21.08 В 3 н/о н/о +22.3 -2.9 18 +21 +21 комфорт 1018.4 1017.5 +19.7 +34.1
21 21.08 С 1 н/о н/о +14.1 +4.7 53 +15 +15 1019.2 1018.3 +13.7 +34.1
00 22.08 В 1 н/о н/о +16.3 -4.7 23 +17 +17 1018.7 1017.8 +13.7 +34.1
03 22.08 В 1 н/о н/о +12.3 +2.2 50 +13 +13 1018.2 1017.3 +12.3 +34.1
06 22.08 В 1 н/о н/о +12.1 -2.8 35 +13 +13 1019.9 1019.0 +11.6
12 22.08 Ю 2 н/о н/о +24.0 +7.4 34 +24 +24 комфорт 1019.2 1018.3 +11.6 +26.6
15 22.08 ЮВ 3 н/о н/о +25.3 +2.3 22 +24 +24 комфорт 1018.8 1017.9 +20.7 +26.9
18 22.08 В 2 н/о н/о +18.2 +5.5 43 +19 +19 1019.9 1019.0 +18.1 +26.9

 

Местоположение метеостанции Порт Ноллоз (Южная Африка): широта -29.23 долгота 16.87 высота над уровнем моря 10 м.

В архиве по умолчанию представлена погода в Порт Ноллоз за последнюю неделю. Архивные данные за месяц целиком и за предыдущие месяцы, начиная с января 2011 года, Вы можете получить, выбрав интересующий диапазон дат из раскрывающегося списка и нажав кнопку "Ввод!".


*Определитесь, кто Вы:
робот инопланетянин человек

Внимание! Время в таблицах - всемирное. Для получения местного времени необходимо прибавить поправку, которая равна 2 ч.

Смотрите также архив погоды в соседних городах и на ближайших метеорологических станциях:

Погода в Александер-Бее (Южная Африка) (82 км)
Погода в Виулсдрифе (Южная Африка) (92 км)
Погода в Спрингбоке (Южная Африка) (111 км)
Погода в Коингнаасе (Южная Африка) (115 км)
Погода в Портервилле (Южная Африка) (222 км)
Погода в Пофаддере (Южная Африка) (244 км)
Погода в Фридендале (Южная Африка) (312 км)
Погода в Ниеувоудтвилле (Южная Африка) (317 км)
Погода в Китмансхупе (Намибия) (324 км)
Погода в Людерице (Намибия) (337 км)

Пояснения к столбцам:

Ветер - указаны скорость ветра в м/с - средняя за 10 мин, порывы в срок и между сроками (в фигурных скобках) и направление, откуда дует ветер: С - северный, СВ - северо-восточный, В - восточный, ЮВ - юго-восточный, Ю - южный, ЮЗ - юго-западный, З - западный, СЗ - северо-западный.
Видимость - горизонтальная дальность видимости в метрах или километрах. При видимости от 1 до 10 км при отсутствии осадков обычно наблюдается дымка, при ухудшении видимости до 1 км и менее - туман. В сухую погоду видимость может ухудшаться дымом, пылью или мглою.
Явления - указаны атмосферные явления, наблюдавшиеся в срок или в последний час перед сроком; фигурными скобками обозначены явления, наблюдавшиеся между сроками (за 1-3 часа до срока); квадратными скобками обозначены град или гололедные отложения с указанием их диаметра в мм.
Облачность - указаны через наклонную черту общая и нижняя облачность в баллах и высота нижней границы облаков в метрах; квадратными скобками обозначены формы облаков: Ci - перистые, Cs - перисто-слоистые, Cc - перисто-кучевые, Ac - высококучевые, As - высокослоистые, Sc - слоисто-кучевые, Ns - слоисто-дождевые, Cu - кучевые, Cb - кучево-дождевые. Подробнее классификацию облаков см. в Атласе облаков (PDF).
T - Температура воздуха - температура, измеренная на высоте 2 м над землей.
Td - Температура точки росы - температура, при понижении до которой содержащийся в воздухе водяной пар достигнет насыщения.
f - Относительная влажность воздуха - влажноcть воздуха, измеренная на высоте 2 м над землей.
Te - Эффективная температура - температура, которую ощущает одетый по сезону человек в тени. Характеристика душности погоды. При расчете учитывается влияние влажности воздуха и скорости ветра на теплоощущения человека.
Tes - Эффективная температура на солнце - температура, которую ощущает человек, с поправкой на солнечный нагрев. Характеристика знойности погоды. Зависит от высоты солнца над горизонтом, облачности и скорости ветра. Ночью, в пасмурную погоду, а также при ветре 12 м/с и более поправка равна нулю.
P - Атмосферное давление - приведенное к уровню моря атмосферное давление.
Po - Атмосферное давление - измеренное на уровне метеостанции атмосферное давление.
Tmin - Минимальная температура - минимум температуры воздуха на высоте 2 м над землей.
Tmax - Максимальная температура - максимум температуры воздуха на высоте 2 м над землей.
R - Количество осадков - Количество выпавших осадков за период времени, мм. При наведении курсора мыши на число - период времени, за который выпало указанное количество осадков.
R24 - Количество осадков - Количество выпавших осадков за 24 часа, мм.
S - Снежный покров - Высота снежного покрова, см. При наведении курсора мыши на число - состояние снежного покрова и степень покрытия местности в баллах.